Location: Buffign�court
(47.8126°N, 6.0176°E)
Time: 17:43:57
(UTC+00:00)

Cosmos 2278 Rocket - Pass Details

Date: 16 June 2021
Orbit: 840 x 847 km, 71.0° (Epoch: 30 July)

Event Time Altitude Azimuth Distance (km) Brightness Sun altitude
Rises 20:22:08 0° 337° (NNW) 3,410 6.9 -6.5°
Reaches altitude 10° 20:25:59 10° 3° (N) 2,474 5.3 -6.9°
Maximum altitude 20:28:48 14° 33° (NNE) 2,212 4.6 -7.3°
Drops below altitude 10° 20:31:38 10° 64° (ENE) 2,471 4.5 -7.6°
Sets 20:35:27 0° 89° (E) 3,404 5.0 -8.0°
